Station Historical Data
Daily Summary for March 31, 2017 Units:  Metric    English   Both
« Previous Day
Next Day »
Daily Weekly Monthly Yearly Custom
  High: Low: Average:
Temperature: 8.8 °C 3.1 °C 5.8 °C
Dew Point: 7.4 °C 1.4 °C 4.6 °C
Humidity: 93% 88% 92%
Wind Speed: 14.5km/h 0km/h 5km/h
Wind Gust: 29km/h - -
Wind- - ENE
Pressure: 1012.8 hPa 1004.3 hPa -
Precipitation: 21.08 mm    
Historical Graphs
 
 
Tabular Data for March 31, 2017
Time Temperature Dew Point Pressure Wind Wind Speed Wind Gust Humidity Rainfall Rate (Hourly)
00:00 3.2 °C 1.4 °C 1010.7 hPa East 11.3 km/h 29 km/h 88% 0 mm
00:05 3.2 °C 1.4 °C 1011.1 hPa East 11.3 km/h 25.7 km/h 88% 0 mm
00:10 3.2 °C 1.4 °C 1011.4 hPa East 9.7 km/h 25.7 km/h 88% 0 mm
00:15 3.3 °C 1.5 °C 1011.4 hPa ENE 9.7 km/h 25.7 km/h 88% 0 mm
00:20 3.3 °C 1.6 °C 1011.1 hPa East 14.5 km/h 19.3 km/h 88% 0 mm
00:25 3.3 °C 1.6 °C 1011.1 hPa ESE 8 km/h 16.1 km/h 88% 0 mm
00:30 3.3 °C 1.6 °C 1011.1 hPa ENE 3.2 km/h 22.5 km/h 88% 0 mm
00:35 3.4 °C 1.6 °C 1011.7 hPa ENE 3.2 km/h 17.7 km/h 88% 0.25 mm
00:40 3.4 °C 1.6 °C 1012.1 hPa NE 4.8 km/h 12.9 km/h 88% 0.25 mm
00:45 3.4 °C 1.7 °C 1012.8 hPa NE 3.2 km/h 14.5 km/h 88% 0.25 mm
00:50 3.4 °C 1.7 °C 1012.8 hPa NE 4.8 km/h 4.8 km/h 88% 0.51 mm
00:55 3.4 °C 1.7 °C 1012.4 hPa NE 4.8 km/h 8 km/h 88% 0.76 mm
01:00 3.4 °C 1.7 °C 1012.1 hPa NE 6.4 km/h 12.9 km/h 88% 0.76 mm
01:05 3.4 °C 1.7 °C 1012.4 hPa NE 6.4 km/h 14.5 km/h 89% 1.27 mm
01:10 3.3 °C 1.7 °C 1012.1 hPa NNE 4.8 km/h 14.5 km/h 89% 1.52 mm
01:15 3.3 °C 1.7 °C 1012.1 hPa NNE 4.8 km/h 11.3 km/h 89% 1.78 mm
01:20 3.3 °C 1.6 °C 1012.1 hPa NNE 6.4 km/h 11.3 km/h 89% 1.78 mm
01:25 3.3 °C 1.6 °C 1012.1 hPa NNE 4.8 km/h 11.3 km/h 89% 1.78 mm
01:30 3.2 °C 1.6 °C 1012.4 hPa NNE 4.8 km/h 11.3 km/h 89% 1.78 mm
01:35 3.2 °C 1.6 °C 1012.1 hPa NE 11.3 km/h 12.9 km/h 89% 1.78 mm
01:40 3.2 °C 1.7 °C 1011.4 hPa NE 9.7 km/h 16.1 km/h 90% 1.78 mm
01:45 3.2 °C 1.7 °C 1011.4 hPa NE 8 km/h 19.3 km/h 90% 1.78 mm
01:50 3.1 °C 1.6 °C 1010.4 hPa NE 8 km/h 16.1 km/h 90% 1.52 mm
01:55 3.1 °C 1.6 °C 1010.4 hPa ESE 12.9 km/h 22.5 km/h 90% 1.27 mm
02:00 3.2 °C 1.7 °C 1010.4 hPa East 12.9 km/h 17.7 km/h 90% 1.27 mm
02:05 3.2 °C 1.7 °C 1010 hPa ENE 9.7 km/h 17.7 km/h 90% 1.02 mm
02:10 3.2 °C 1.7 °C 1010 hPa East 8 km/h 17.7 km/h 90% 0.76 mm
02:15 3.2 °C 1.7 °C 1009.4 hPa East 8 km/h 17.7 km/h 90% 0.51 mm
02:20 3.2 °C 1.7 °C 1009.4 hPa ENE 8 km/h 17.7 km/h 90% 0.51 mm
02:25 3.3 °C 1.8 °C 1009.4 hPa East 8 km/h 17.7 km/h 90% 0.51 mm
02:30 3.3 °C 1.8 °C 1009.7 hPa East 9.7 km/h 17.7 km/h 90% 0.25 mm
02:35 3.3 °C 1.8 °C 1009.7 hPa ENE 8 km/h 17.7 km/h 90% 0.25 mm
02:40 3.4 °C 1.9 °C 1009.7 hPa ENE 6.4 km/h 17.7 km/h 90% 0.25 mm
02:45 3.4 °C 1.8 °C 1010 hPa ENE 8 km/h 9.7 km/h 89% 0.25 mm
02:50 3.5 °C 1.8 °C 1010 hPa ENE 1.6 km/h 14.5 km/h 89% 0.25 mm
02:55 3.6 °C 1.9 °C 1009.7 hPa ENE 1.6 km/h 11.3 km/h 89% 0.25 mm
03:00 3.6 °C 1.9 °C 1009.7 hPa East 3.2 km/h 14.5 km/h 89% 0.25 mm
03:05 3.6 °C 1.9 °C 1009.7 hPa NE 9.7 km/h 11.3 km/h 89% 0 mm
03:10 3.7 °C 2 °C 1009.4 hPa ENE 6.4 km/h 16.1 km/h 89% 0 mm
03:15 3.7 °C 2 °C 1009.4 hPa ENE 6.4 km/h 16.1 km/h 89% 0 mm
03:20 3.7 °C 1.9 °C 1009.4 hPa ENE 6.4 km/h 16.1 km/h 88% 0 mm
03:25 3.7 °C 2.1 °C 1009 hPa ENE 6.4 km/h 14.5 km/h 89% 0 mm
03:30 3.8 °C 2 °C 1009 hPa ENE 4.8 km/h 14.5 km/h 88% 0 mm
03:35 3.8 °C 2 °C 1009 hPa East 4.8 km/h 14.5 km/h 88% 0 mm
03:40 3.8 °C 2 °C 1009 hPa NNE 3.2 km/h 14.5 km/h 88% 0 mm
03:45 3.9 °C 2.1 °C 1009 hPa ENE 4.8 km/h 12.9 km/h 88% 0 mm
03:50 3.9 °C 2.1 °C 1009 hPa NE 8 km/h 14.5 km/h 88% 0 mm
03:55 3.9 °C 2.1 °C 1009 hPa NE 6.4 km/h 11.3 km/h 88% 0.25 mm
04:00 3.9 °C 2.1 °C 1009.4 hPa ENE 3.2 km/h 11.3 km/h 88% 0.51 mm
04:05 3.9 °C 2.1 °C 1009.4 hPa NE 1.6 km/h 8 km/h 88% 0.51 mm
04:10 3.8 °C 2.2 °C 1009 hPa NE 3.2 km/h 12.9 km/h 89% 1.02 mm
04:15 3.8 °C 2.2 °C 1008.7 hPa ENE 4.8 km/h 12.9 km/h 89% 1.27 mm
04:20 3.8 °C 2.2 °C 1008.7 hPa ENE 4.8 km/h 12.9 km/h 89% 1.52 mm
04:25 3.8 °C 2.2 °C 1008.7 hPa ENE 4.8 km/h 12.9 km/h 89% 2.03 mm
04:30 3.8 °C 2.3 °C 1008.7 hPa ENE 4.8 km/h 9.7 km/h 90% 3.3 mm
04:35 3.8 °C 2.3 °C 1008.4 hPa East 3.2 km/h 12.9 km/h 90% 4.06 mm
04:40 3.8 °C 2.3 °C 1008.4 hPa East 3.2 km/h 11.3 km/h 90% 4.32 mm
04:45 3.8 °C 2.3 °C 1008 hPa East 4.8 km/h 11.3 km/h 90% 4.83 mm
04:50 3.8 °C 2.3 °C 1008 hPa ENE 6.4 km/h 14.5 km/h 90% 5.08 mm
04:55 3.8 °C 2.3 °C 1008 hPa East 6.4 km/h 14.5 km/h 90% 5.33 mm
05:00 3.8 °C 2.4 °C 1007.7 hPa ENE 6.4 km/h 14.5 km/h 91% 5.33 mm
05:05 3.8 °C 2.4 °C 1007.7 hPa ENE 6.4 km/h 16.1 km/h 91% 5.84 mm
05:10 3.8 °C 2.5 °C 1007.3 hPa ENE 6.4 km/h 16.1 km/h 91% 5.59 mm
05:15 3.9 °C 2.6 °C 1007.3 hPa NE 6.4 km/h 11.3 km/h 91% 5.33 mm
05:20 3.9 °C 2.6 °C 1007.3 hPa East 11.3 km/h 12.9 km/h 91% 5.08 mm
05:25 4 °C 2.7 °C 1007.7 hPa NE 4.8 km/h 11.3 km/h 91% 4.57 mm
05:30 4.1 °C 2.8 °C 1007.7 hPa NE 3.2 km/h 8 km/h 91% 3.3 mm
05:35 4.2 °C 3 °C 1007.7 hPa NE 3.2 km/h 11.3 km/h 92% 2.54 mm
05:40 4.2 °C 3 °C 1007.3 hPa NE 4.8 km/h 9.7 km/h 92% 2.54 mm
05:45 4.2 °C 3.1 °C 1007.3 hPa NE 8 km/h 12.9 km/h 92% 2.03 mm
05:50 4.2 °C 3.1 °C 1007.3 hPa NE 6.4 km/h 16.1 km/h 92% 2.03 mm
05:55 4.3 °C 3.1 °C 1007.3 hPa NE 8 km/h 16.1 km/h 92% 1.52 mm
06:00 4.3 °C 3.1 °C 1007.3 hPa NE 8 km/h 14.5 km/h 92% 1.52 mm
06:05 4.3 °C 3.1 °C 1007.3 hPa NE 8 km/h 14.5 km/h 92% 1.52 mm
06:10 4.2 °C 3.1 °C 1007.3 hPa NE 8 km/h 16.1 km/h 92% 1.27 mm
06:15 4.3 °C 3.1 °C 1007.3 hPa NE 8 km/h 16.1 km/h 92% 1.52 mm
06:20 4.3 °C 3.1 °C 1007.3 hPa NE 6.4 km/h 14.5 km/h 92% 1.52 mm
06:25 4.3 °C 3.1 °C 1007 hPa NNE 3.2 km/h 14.5 km/h 92% 1.52 mm
06:30 4.3 °C 3.1 °C 1007 hPa NE 11.3 km/h 12.9 km/h 92% 1.52 mm
06:35 4.3 °C 3.2 °C 1007 hPa ENE 3.2 km/h 14.5 km/h 92% 1.52 mm
06:40 4.3 °C 3.2 °C 1007.3 hPa NE 9.7 km/h 16.1 km/h 92% 1.27 mm
06:45 4.3 °C 3.2 °C 1007.3 hPa NE 12.9 km/h 12.9 km/h 92% 1.52 mm
06:50 4.4 °C 3.2 °C 1007.3 hPa NE 1.6 km/h 14.5 km/h 92% 1.52 mm
06:55 4.4 °C 3.2 °C 1007.3 hPa NE 4.8 km/h 14.5 km/h 92% 1.52 mm
07:00 4.4 °C 3.2 °C 1007.3 hPa NE 3.2 km/h 8 km/h 92% 1.27 mm
07:05 4.4 °C 3.2 °C 1007.3 hPa NE 4.8 km/h 9.7 km/h 92% 1.52 mm
07:10 4.4 °C 3.3 °C 1007.3 hPa NE 3.2 km/h 9.7 km/h 92% 1.78 mm
07:15 4.4 °C 3.2 °C 1007.3 hPa NE 3.2 km/h 8 km/h 92% 1.78 mm
07:20 4.4 °C 3.3 °C 1007.3 hPa NE 3.2 km/h 6.4 km/h 92% 1.78 mm
07:25 4.5 °C 3.3 °C 1007.3 hPa NE 4.8 km/h 11.3 km/h 92% 1.78 mm
07:30 4.4 °C 3.3 °C 1007 hPa NE 3.2 km/h 9.7 km/h 92% 1.78 mm
07:35 4.4 °C 3.4 °C 1007.3 hPa NE 1.6 km/h 8 km/h 93% 1.78 mm
07:40 4.4 °C 3.3 °C 1007 hPa NE 1.6 km/h 8 km/h 92% 1.78 mm
07:45 4.4 °C 3.3 °C 1007 hPa North 3.2 km/h 11.3 km/h 93% 1.52 mm
07:50 4.4 °C 3.3 °C 1007 hPa NE 3.2 km/h 8 km/h 92% 1.27 mm
07:55 4.4 °C 3.3 °C 1007 hPa NNE 3.2 km/h 11.3 km/h 92% 1.27 mm
08:00 4.4 °C 3.4 °C 1007 hPa NNE 4.8 km/h 11.3 km/h 93% 1.27 mm
08:05 4.4 °C 3.4 °C 1007 hPa NNE 3.2 km/h 6.4 km/h 93% 0.51 mm
08:10 4.4 °C 3.4 °C 1007 hPa NE 4.8 km/h 11.3 km/h 93% 0.25 mm
08:15 4.4 °C 3.4 °C 1007 hPa NNE 4.8 km/h 11.3 km/h 93% 0 mm
08:20 4.5 °C 3.4 °C 1007 hPa NNE 4.8 km/h 11.3 km/h 93% 0 mm
08:25 4.5 °C 3.4 °C 1007 hPa NE 4.8 km/h 12.9 km/h 93% 0 mm
08:30 4.6 °C 3.6 °C 1007 hPa NE 8 km/h 8 km/h 93% 0 mm
08:35 4.6 °C 3.5 °C 1007.3 hPa NNE 3.2 km/h 8 km/h 93% 0 mm
08:40 4.5 °C 3.4 °C 1007.3 hPa NE 3.2 km/h 9.7 km/h 93% 0 mm
08:45 4.5 °C 3.4 °C 1007.3 hPa NE 9.7 km/h 9.7 km/h 93% 0 mm
08:50 4.6 °C 3.5 °C 1007.3 hPa NNE 4.8 km/h 9.7 km/h 93% 0 mm
08:55 4.6 °C 3.5 °C 1007 hPa NNE 1.6 km/h 6.4 km/h 93% 0 mm
09:00 4.6 °C 3.6 °C 1007 hPa NE 6.4 km/h 9.7 km/h 93% 0 mm
09:05 4.6 °C 3.6 °C 1007 hPa NE 4.8 km/h 14.5 km/h 93% 0 mm
09:10 4.6 °C 3.6 °C 1007 hPa NE 4.8 km/h 14.5 km/h 93% 0.25 mm
09:15 4.6 °C 3.6 °C 1007 hPa NE 4.8 km/h 9.7 km/h 93% 0.25 mm
09:20 4.7 °C 3.7 °C 1007 hPa NE 4.8 km/h 11.3 km/h 93% 0.25 mm
09:25 4.8 °C 3.7 °C 1007 hPa NE 4.8 km/h 11.3 km/h 93% 0.25 mm
09:30 4.9 °C 3.8 °C 1007 hPa NE 3.2 km/h 8 km/h 93% 0.25 mm
09:35 4.9 °C 3.9 °C 1007 hPa NNE 1.6 km/h 8 km/h 93% 0.25 mm
09:40 5.1 °C 4 °C 1007 hPa NNE 3.2 km/h 8 km/h 93% 0.25 mm
09:45 5.2 °C 4.1 °C 1007 hPa North 4.8 km/h 8 km/h 93% 0.25 mm
09:50 5.3 °C 4.2 °C 1007 hPa NNE 4.8 km/h 9.7 km/h 93% 0.25 mm
09:55 5.4 °C 4.3 °C 1006.7 hPa NE 6.4 km/h 12.9 km/h 93% 0.25 mm
10:00 5.4 °C 4.4 °C 1006.7 hPa NE 9.7 km/h 11.3 km/h 93% 0.25 mm
10:05 5.7 °C 4.6 °C 1006.7 hPa NE 1.6 km/h 11.3 km/h 93% 0.25 mm
10:10 5.8 °C 4.7 °C 1006.7 hPa NE 4.8 km/h 11.3 km/h 93% 0 mm
10:15 5.9 °C 4.9 °C 1006.7 hPa NE 4.8 km/h 11.3 km/h 93% 0 mm
10:20 5.9 °C 4.9 °C 1006.7 hPa NE 4.8 km/h 11.3 km/h 93% 0 mm
10:25 6.1 °C 5.1 °C 1006.7 hPa NE 4.8 km/h 11.3 km/h 93% 0 mm
10:30 6.1 °C 5.1 °C 1006.7 hPa NNE 8 km/h 11.3 km/h 93% 0 mm
10:35 6.2 °C 5.1 °C 1006.7 hPa NE 1.6 km/h 9.7 km/h 93% 0 mm
10:40 6.1 °C 4.9 °C 1006.7 hPa NE 4.8 km/h 11.3 km/h 92% 0 mm
10:45 6.2 °C 5.2 °C 1007 hPa NE 6.4 km/h 12.9 km/h 93% 0 mm
10:50 6.4 °C 5.2 °C 1007 hPa NE 6.4 km/h 9.7 km/h 92% 0 mm
10:55 6.3 °C 5.1 °C 1006.7 hPa NE 3.2 km/h 9.7 km/h 92% 0 mm
11:00 6.4 °C 5.2 °C 1006.7 hPa NE 4.8 km/h 8 km/h 92% 0 mm
11:05 6.4 °C 5.2 °C 1006.7 hPa NE 4.8 km/h 11.3 km/h 92% 0 mm
11:10 6.4 °C 5.2 °C 1006.7 hPa NE 6.4 km/h 9.7 km/h 92% 0 mm
11:15 6.6 °C 5.3 °C 1006.7 hPa NE 4.8 km/h 9.7 km/h 92% 0 mm
11:20 6.6 °C 5.4 °C 1006.3 hPa NE 4.8 km/h 12.9 km/h 92% 0 mm
11:25 6.6 °C 5.4 °C 1006.3 hPa NE 3.2 km/h 9.7 km/h 92% 0 mm
11:30 6.7 °C 5.5 °C 1006.3 hPa NE 4.8 km/h 11.3 km/h 92% 0 mm
11:35 6.7 °C 5.5 °C 1006.3 hPa NE 6.4 km/h 12.9 km/h 92% 0 mm
11:40 6.8 °C 5.6 °C 1006.3 hPa NE 6.4 km/h 12.9 km/h 92% 0 mm
11:45 6.8 °C 5.6 °C 1006.3 hPa NE 3.2 km/h 12.9 km/h 92% 0 mm
11:50 7 °C 5.8 °C 1006.3 hPa NE 1.6 km/h 12.9 km/h 92% 0.25 mm
11:55 7.1 °C 5.8 °C 1006.3 hPa ENE 6.4 km/h 14.5 km/h 92% 0.25 mm
12:00 7.1 °C 5.8 °C 1006.3 hPa ENE 11.3 km/h 14.5 km/h 92% 0.25 mm
12:05 7.2 °C 5.9 °C 1006.3 hPa NE 12.9 km/h 14.5 km/h 92% 0.25 mm
12:10 7.3 °C 6.3 °C 1006 hPa NNE 3.2 km/h 12.9 km/h 93% 0.25 mm
12:15 7.2 °C 6 °C 1006 hPa NE 4.8 km/h 14.5 km/h 92% 0.25 mm
12:20 7.2 °C 6 °C 1006 hPa NE 8 km/h 16.1 km/h 92% 0.25 mm
12:25 7.4 °C 6.2 °C 1006 hPa NE 6.4 km/h 16.1 km/h 92% 0.25 mm
12:30 7.4 °C 6.2 °C 1006 hPa NE 6.4 km/h 14.5 km/h 92% 0.25 mm
12:35 7.3 °C 6.1 °C 1006 hPa NE 8 km/h 14.5 km/h 92% 0.25 mm
12:40 7.4 °C 6.2 °C 1006 hPa NE 8 km/h 14.5 km/h 92% 0.25 mm
12:45 7.4 °C 6.2 °C 1006 hPa NE 6.4 km/h 14.5 km/h 92% 0.25 mm
12:50 7.4 °C 6.2 °C 1005.6 hPa NNE 6.4 km/h 11.3 km/h 92% 0.25 mm
12:55 7.4 °C 6.2 °C 1005.6 hPa ENE 8 km/h 14.5 km/h 92% 0.25 mm
13:00 7.4 °C 6.2 °C 1005.6 hPa NE 8 km/h 17.7 km/h 92% 0.25 mm
13:05 7.4 °C 6.2 °C 1005.6 hPa NE 8 km/h 17.7 km/h 92% 0.25 mm
13:10 7.4 °C 6.2 °C 1005.6 hPa ENE 4.8 km/h 16.1 km/h 92% 0.25 mm
13:15 7.6 °C 6.3 °C 1005.3 hPa NE 8 km/h 11.3 km/h 92% 0.25 mm
13:20 7.8 °C 6.6 °C 1005.3 hPa ENE 4.8 km/h 14.5 km/h 92% 0.25 mm
13:25 7.7 °C 6.4 °C 1005.3 hPa NE 6.4 km/h 14.5 km/h 92% 0.25 mm
13:30 7.7 °C 6.5 °C 1005.3 hPa NE 8 km/h 14.5 km/h 92% 0.25 mm
13:35 7.9 °C 6.7 °C 1005.3 hPa NE 8 km/h 14.5 km/h 92% 0.25 mm
13:40 7.9 °C 6.7 °C 1005.3 hPa NE 6.4 km/h 12.9 km/h 92% 0.51 mm
13:45 7.9 °C 6.7 °C 1005.3 hPa NE 6.4 km/h 14.5 km/h 92% 0.51 mm
13:50 8.1 °C 6.8 °C 1005.3 hPa NE 6.4 km/h 14.5 km/h 92% 0.25 mm
13:55 7.9 °C 6.7 °C 1005.3 hPa NE 4.8 km/h 11.3 km/h 92% 0.25 mm
14:05 7.8 °C 6.6 °C 1005.3 hPa NE 4.8 km/h 8 km/h 92% 0.76 mm
14:10 7.8 °C 6.6 °C 1005.3 hPa Calm   4.8 km/h 92% 1.02 mm
14:15 7.9 °C 6.9 °C 1005.3 hPa NE 1.6 km/h 4.8 km/h 93% 1.27 mm
14:20 7.9 °C 6.7 °C 1005.3 hPa SE 1.6 km/h 9.7 km/h 92% 1.52 mm
14:25 7.9 °C 6.7 °C 1005 hPa SE 4.8 km/h 8 km/h 92% 1.52 mm
14:30 8 °C 6.8 °C 1005 hPa SE 3.2 km/h 9.7 km/h 92% 1.78 mm
14:35 8.1 °C 6.7 °C 1005 hPa SE 4.8 km/h 12.9 km/h 91% 2.03 mm
14:40 8.2 °C 6.8 °C 1005 hPa SE 4.8 km/h 12.9 km/h 91% 1.78 mm
14:45 8.2 °C 6.8 °C 1005 hPa SE 6.4 km/h 12.9 km/h 91% 1.78 mm
14:50 8.3 °C 6.9 °C 1005 hPa SE 4.8 km/h 12.9 km/h 91% 2.03 mm
14:55 8.4 °C 7 °C 1005 hPa Calm   9.7 km/h 91% 2.03 mm
15:00 8.6 °C 7.4 °C 1004.6 hPa Calm   4.8 km/h 92% 1.78 mm
15:05 8.6 °C 7.2 °C 1004.6 hPa ESE 1.6 km/h 6.4 km/h 91% 1.52 mm
15:10 8.7 °C 7.3 °C 1004.6 hPa Calm   4.8 km/h 91% 1.52 mm
15:15 8.7 °C 7.3 °C 1004.6 hPa ENE 1.6 km/h 8 km/h 91% 1.27 mm
15:20 8.7 °C 7.1 °C 1004.6 hPa ENE 4.8 km/h 6.4 km/h 90% 1.02 mm
15:25 8.6 °C 7.1 °C 1004.6 hPa ENE 3.2 km/h 11.3 km/h 90% 1.02 mm
15:30 8.7 °C 7.1 °C 1004.6 hPa NE 3.2 km/h 8 km/h 90% 1.02 mm
15:35 8.8 °C 7.2 °C 1004.6 hPa East 3.2 km/h 8 km/h 90% 0.76 mm
15:40 8.8 °C 7.2 °C 1004.6 hPa ENE 3.2 km/h 8 km/h 90% 0.76 mm
15:45 8.8 °C 7.2 °C 1004.6 hPa ENE 3.2 km/h 8 km/h 90% 0.76 mm
15:50 8.6 °C 7.1 °C 1004.6 hPa East 3.2 km/h 8 km/h 90% 0.51 mm
15:55 8.6 °C 6.9 °C 1004.6 hPa East 3.2 km/h 8 km/h 89% 0.51 mm
16:00 8.6 °C 7.1 °C 1004.6 hPa ENE 4.8 km/h 4.8 km/h 90% 0.51 mm
16:05 8.5 °C 6.9 °C 1004.6 hPa NE 4.8 km/h 6.4 km/h 90% 0.51 mm
16:10 8.4 °C 6.8 °C 1004.6 hPa NE 3.2 km/h 8 km/h 90% 0.25 mm
16:15 8.3 °C 6.8 °C 1004.6 hPa NE 3.2 km/h 12.9 km/h 90% 0.25 mm
16:20 8.3 °C 6.9 °C 1004.6 hPa ENE 4.8 km/h 8 km/h 91% 0.25 mm
16:25 8.3 °C 6.9 °C 1004.6 hPa East 3.2 km/h 8 km/h 91% 0.25 mm
16:30 8.3 °C 6.9 °C 1004.6 hPa ENE 1.6 km/h 6.4 km/h 91% 0 mm
16:35 8.3 °C 6.9 °C 1004.3 hPa East 3.2 km/h 9.7 km/h 91% 0 mm
16:40 8.3 °C 6.9 °C 1004.3 hPa East 3.2 km/h 9.7 km/h 91% 0.25 mm
16:45 8.2 °C 6.8 °C 1004.3 hPa East 3.2 km/h 11.3 km/h 91% 0.25 mm
16:50 8.3 °C 7.1 °C 1004.3 hPa East 4.8 km/h 11.3 km/h 92% 0.25 mm
16:55 8.4 °C 7.2 °C 1004.3 hPa ENE 3.2 km/h 9.7 km/h 92% 0.25 mm
17:00 8.4 °C 7.2 °C 1004.3 hPa East 3.2 km/h 9.7 km/h 92% 0.25 mm
17:05 8.3 °C 7.1 °C 1004.6 hPa SE 3.2 km/h 9.7 km/h 92% 0.25 mm
17:10 8.2 °C 6.9 °C 1004.3 hPa ESE 6.4 km/h 9.7 km/h 92% 0.25 mm
17:15 8.2 °C 6.9 °C 1004.3 hPa ESE 4.8 km/h 12.9 km/h 92% 0.25 mm
17:20 8.1 °C 6.9 °C 1004.3 hPa East 4.8 km/h 9.7 km/h 92% 0.25 mm
17:25 8.1 °C 6.8 °C 1004.3 hPa ESE 4.8 km/h 9.7 km/h 92% 0.25 mm
17:30 8.1 °C 6.8 °C 1004.3 hPa ESE 3.2 km/h 8 km/h 92% 0.25 mm
17:35 8.1 °C 6.8 °C 1004.3 hPa NE 4.8 km/h 8 km/h 92% 0.25 mm
17:40 8 °C 6.8 °C 1004.3 hPa ENE 4.8 km/h 12.9 km/h 92% 0 mm
17:45 7.9 °C 6.7 °C 1004.6 hPa ENE 3.2 km/h 12.9 km/h 92% 0.25 mm
17:50 7.9 °C 6.7 °C 1004.6 hPa ENE 3.2 km/h 8 km/h 92% 0.25 mm
17:55 7.9 °C 6.7 °C 1004.6 hPa ENE 4.8 km/h 11.3 km/h 92% 0.25 mm
18:00 7.9 °C 6.7 °C 1004.6 hPa ENE 3.2 km/h 11.3 km/h 92% 0.25 mm
18:05 7.8 °C 6.6 °C 1004.6 hPa East 3.2 km/h 11.3 km/h 92% 0.25 mm
18:10 7.8 °C 6.6 °C 1004.6 hPa East 3.2 km/h 11.3 km/h 92% 0.51 mm
18:15 7.8 °C 6.6 °C 1004.6 hPa ENE 4.8 km/h 9.7 km/h 92% 0.51 mm
18:20 7.8 °C 6.6 °C 1004.6 hPa East 3.2 km/h 8 km/h 92% 0.76 mm
18:25 7.7 °C 6.5 °C 1005 hPa ENE 4.8 km/h 8 km/h 92% 0.76 mm
18:30 7.7 °C 6.4 °C 1004.6 hPa Calm   8 km/h 92% 1.02 mm
18:35 7.7 °C 6.5 °C 1005 hPa East 4.8 km/h 4.8 km/h 92% 1.02 mm
18:40 7.7 °C 6.5 °C 1005 hPa Calm   8 km/h 92% 1.27 mm
18:45 7.7 °C 6.5 °C 1005 hPa ENE 1.6 km/h 8 km/h 92% 1.27 mm
18:50 7.7 °C 6.4 °C 1005 hPa East 1.6 km/h 8 km/h 92% 1.27 mm
18:55 7.6 °C 6.4 °C 1005 hPa East 1.6 km/h 8 km/h 92% 1.27 mm
19:00 7.6 °C 6.3 °C 1005 hPa East 1.6 km/h 8 km/h 92% 1.27 mm
19:05 7.5 °C 6.3 °C 1005 hPa East 3.2 km/h 9.7 km/h 92% 1.52 mm
19:10 7.5 °C 6.3 °C 1005.3 hPa East 3.2 km/h 9.7 km/h 92% 1.27 mm
19:15 7.4 °C 6.2 °C 1005 hPa Calm   3.2 km/h 92% 1.27 mm
19:20 7.4 °C 6.2 °C 1005.3 hPa Calm   8 km/h 92% 1.02 mm
19:25 7.4 °C 6.2 °C 1005.3 hPa ENE 1.6 km/h 8 km/h 92% 1.27 mm
19:30 7.3 °C 6.3 °C 1005.3 hPa ENE 1.6 km/h 4.8 km/h 93% 1.02 mm
19:35 7.3 °C 6.3 °C 1005.3 hPa Calm   6.4 km/h 93% 1.02 mm
19:40 7.3 °C 6.3 °C 1005.3 hPa ENE 1.6 km/h 4.8 km/h 93% 1.02 mm
19:45 7.3 °C 6.2 °C 1005.3 hPa Calm   1.6 km/h 93% 0.76 mm
19:50 7.3 °C 6.2 °C 1005.3 hPa Calm     93% 1.02 mm
19:55 7.3 °C 6.2 °C 1005.3 hPa ENE 1.6 km/h 4.8 km/h 93% 1.02 mm
20:00 7.2 °C 6.2 °C 1005.3 hPa ENE 1.6 km/h 4.8 km/h 93% 1.02 mm
20:05 7.3 °C 6.2 °C 1005.6 hPa ENE 1.6 km/h 4.8 km/h 93% 1.02 mm
20:10 7.3 °C 6.2 °C 1005.6 hPa ENE 3.2 km/h 4.8 km/h 93% 1.02 mm
20:15 7.3 °C 6.2 °C 1005.6 hPa ENE 3.2 km/h 6.4 km/h 93% 1.02 mm
20:20 7.2 °C 6.2 °C 1005.6 hPa NE 1.6 km/h 8 km/h 93% 1.27 mm
20:25 7.2 °C 6.1 °C 1005.6 hPa NE 3.2 km/h 4.8 km/h 93% 1.02 mm
20:30 7.1 °C 6 °C 1005.6 hPa NE 3.2 km/h 6.4 km/h 93% 1.02 mm
20:35 7.1 °C 6 °C 1005.6 hPa ENE 1.6 km/h 8 km/h 93% 1.27 mm
20:40 7 °C 5.9 °C 1005.6 hPa NE 4.8 km/h 6.4 km/h 93% 1.02 mm
20:45 6.9 °C 5.9 °C 1006 hPa NNE 1.6 km/h 6.4 km/h 93% 1.27 mm
20:50 6.9 °C 5.8 °C 1006 hPa NNE 4.8 km/h 9.7 km/h 93% 1.02 mm
20:55 6.9 °C 5.8 °C 1006 hPa NE 3.2 km/h 12.9 km/h 93% 1.02 mm
21:00 6.8 °C 5.8 °C 1006 hPa NE 4.8 km/h 12.9 km/h 93% 1.02 mm
21:05 6.8 °C 5.7 °C 1006 hPa NE 3.2 km/h 6.4 km/h 93% 1.02 mm
21:10 6.8 °C 5.7 °C 1006 hPa NE 3.2 km/h 8 km/h 93% 1.02 mm
21:15 6.7 °C 5.6 °C 1006 hPa NE 4.8 km/h 8 km/h 93% 1.27 mm
21:20 6.6 °C 5.5 °C 1006 hPa NNE 4.8 km/h 8 km/h 93% 1.02 mm
21:25 6.4 °C 5.4 °C 1006 hPa NNE 8 km/h 11.3 km/h 93% 1.02 mm
21:30 6.3 °C 5.3 °C 1006 hPa NE 6.4 km/h 19.3 km/h 93% 1.27 mm
21:35 6.2 °C 5.1 °C 1006 hPa NE 8 km/h 19.3 km/h 93% 1.02 mm
21:40 6.1 °C 5.1 °C 1006 hPa NE 6.4 km/h 12.9 km/h 93% 1.02 mm
21:45 6.1 °C 5.1 °C 1006.3 hPa ENE 11.3 km/h 11.3 km/h 93% 0.76 mm
21:50 6.1 °C 5 °C 1006.3 hPa NE 11.3 km/h 11.3 km/h 93% 0.76 mm
21:55 6.1 °C 5 °C 1006.3 hPa NE 11.3 km/h 11.3 km/h 93% 0.76 mm
22:00 6 °C 4.9 °C 1006.3 hPa NNE 1.6 km/h 11.3 km/h 93% 0.76 mm
22:05 6 °C 4.9 °C 1006.3 hPa NNE 4.8 km/h 9.7 km/h 93% 0.51 mm
22:10 6 °C 4.9 °C 1006.3 hPa NE 3.2 km/h 9.7 km/h 93% 0.76 mm
22:15 6 °C 4.9 °C 1006.3 hPa NNE 3.2 km/h 8 km/h 93% 0.51 mm
22:20 5.9 °C 4.9 °C 1006.3 hPa NNE 1.6 km/h 8 km/h 93% 0.51 mm
22:25 5.9 °C 4.9 °C 1006.3 hPa NNE 3.2 km/h 11.3 km/h 93% 0.51 mm
22:30 5.9 °C 4.8 °C 1006.3 hPa North 3.2 km/h 8 km/h 93% 0.25 mm
22:35 5.8 °C 4.8 °C 1006.3 hPa NE 4.8 km/h 12.9 km/h 93% 0.25 mm
22:40 5.8 °C 4.8 °C 1006.3 hPa NNE 4.8 km/h 12.9 km/h 93% 0.25 mm
22:45 5.8 °C 4.7 °C 1006.3 hPa NNE 4.8 km/h 11.3 km/h 93% 0.25 mm
22:50 5.7 °C 4.6 °C 1006.3 hPa NNE 4.8 km/h 11.3 km/h 93% 0.25 mm
22:55 5.5 °C 4.4 °C 1006.3 hPa NNE 4.8 km/h 9.7 km/h 93% 0.25 mm
23:00 5.3 °C 4.3 °C 1006.3 hPa NNE 4.8 km/h 9.7 km/h 93% 0.25 mm
23:05 5.2 °C 4.2 °C 1006.7 hPa NNE 4.8 km/h 9.7 km/h 93% 0.51 mm
23:10 5.1 °C 4.1 °C 1006.7 hPa NNE 4.8 km/h 9.7 km/h 93% 0.25 mm
23:15 5.1 °C 4 °C 1006.7 hPa NNE 3.2 km/h 9.7 km/h 93% 0.25 mm
23:20 5 °C 3.9 °C 1006.7 hPa NNE 4.8 km/h 11.3 km/h 93% 0.25 mm
23:25 4.9 °C 3.8 °C 1006.7 hPa North 4.8 km/h 9.7 km/h 93% 0.25 mm
23:30 4.8 °C 3.7 °C 1006.7 hPa NE 6.4 km/h 11.3 km/h 93% 0.51 mm
23:35 4.6 °C 3.6 °C 1006.7 hPa North 4.8 km/h 11.3 km/h 93% 0.51 mm
23:40 4.5 °C 3.4 °C 1006.7 hPa North 6.4 km/h 11.3 km/h 93% 0.51 mm
23:45 4.4 °C 3.3 °C 1007 hPa NNE 6.4 km/h 11.3 km/h 93% 0.51 mm
23:50 4.3 °C 3.3 °C 1007 hPa NNE 6.4 km/h 12.9 km/h 93% 0.51 mm
23:55 4.3 °C 3.2 °C 1007 hPa North 6.4 km/h 12.9 km/h 93% 0.51 mm
Buffalo, New York, USA
Compliments of Weather Underground - 2.5 mb